Regional Weather Roundup
Issued by NWS

Home | Current Version | Previous Version | Graphics & Text | Print | Product List | Glossary On
Versions: 1 2 3 4 5 6 7 8 9 10 11 12 13 14 15 16 17 18 19 20 21 22 23 24 25 26 27 28 29 30 31 32 33 34 35 36 37 38 39 40 41 42 43 44 45 46 47 48 49 50
000
ASUS43 KLSX 101707
RWRMO

WEATHER SUMMARY FOR MISSOURI
NATIONAL WEATHER SERVICE SPRINGFIELD MO
1200 PM CDT THU JUL 10 2014

NOTE: "FAIR" INDICATES FEW OR NO CLOUDS BELOW 12,000 FEET WITH NO
       SIGNIFICANT WEATHER AND/OR OBSTRUCTIONS TO VISIBILITY.
       CURRENT SKY AND/OR WEATHER CONDITIONS ARE NOT AVAILABLE FOR
       CHILLICOTHE AND FARMINGTON.

MOZ001>031-035>038-043-044-053-054-101800-
...NORTHERN AND WESTERN MISSOURI...

CITY           SKY/WX    TMP DP  RH WIND       PRES   REMARKS
KANSAS CTY INT PTSUNNY   79  65  62 S10       30.09F
KANSAS C DTWN  PTSUNNY   80  64  58 SE9       30.08F
LEE`S SUMMIT   PTSUNNY   77  64  64 SE12      30.10F
ST JOSEPH      SUNNY     80  64  58 S16       30.08S
CHILLICOTHE      N/A     79  61  53 SE8       30.12F
KIRKSVILLE     SUNNY     78  60  53 SE14      30.16S

$$
MOZ066>068-077>081-088>096-101>105-101800-
...SOUTHWEST MISSOURI...

CITY           SKY/WX    TMP DP  RH WIND       PRES   REMARKS
SPRINGFIELD    CLOUDY    75  64  68 SE8       30.12S
JOPLIN         LGT RAIN  70  66  87 E6        30.09F

$$
MOZ032>034-039>042-045>050-055>058-069>072-101800-
...CENTRAL MISSOURI...

CITY           SKY/WX    TMP DP  RH WIND       PRES   REMARKS
COLUMBIA       PTSUNNY   77  60  55 SE8       30.15F
JEFFERSON CITY CLOUDY    76  61  59 E7        30.13F
ROLLA          CLOUDY    76  60  57 E9        30.14F
SEDALIA        PTSUNNY   78  62  57 SE12      30.13F
WHITEMAN AFB   MOSUNNY   78  57  49 SE9       30.11S
OSAGE BEACH    PTSUNNY   79  61  53 SE8       30.13F

$$
MOZ051-052-059>065-101800-
...EAST CENTRAL MISSOURI...

CITY           SKY/WX    TMP DP  RH WIND       PRES   REMARKS
ST LOUIS INTL  NOT AVBL
SPIRIT OF STL  PTSUNNY   79  56  45 CALM      30.14F
ST CHARLES     MOSUNNY   80  59  48 E8        30.15S

$$
MOZ072>076-082>087-097>100-106>115-101800-
...SOUTH CENTRAL AND SOUTHEAST MISSOURI...

CITY           SKY/WX    TMP DP  RH WIND       PRES   REMARKS
CAPE GIRARDEAU PTSUNNY   82  64  54 N7        30.13R
FARMINGTON     PTSUNNY   77  59  53 CALM      30.18S
POPLAR BLUFF   PTSUNNY   82  66  58 VRB7      30.11S
WEST PLAINS    CLOUDY    75  64  68 E6        30.16S

$$



USA.gov is the U.S. government's official web portal to all federal, state and local government web resources and services.